This demonstration page uses our WeatherBlox Daily Observations layout. Learn more.

Left ArrowRight Arrow

Hourly Observations for April 3, 2021

Temp ( °F °C ) Dew Point ( °F °C ) Humidity (%) Winds ( mph kmh ) Pressure ( in mb ) Visibility ( mi km ) Precip ( " mm )
12:59 am 00:59 Clear 42 5.6 16 -8.9 35 35 NW 13 20 30.38 1029 10 16 0.00 0.00
1:59 am 01:59 Clear 41 5 18 -7.8 39 39 NW 14 22 30.38 1029 10 16 0.00 0.00
2:59 am 02:59 Clear 41 5 20 -6.7 43 43 NNW 16 26 30.38 1029 10 16 0.00 0.00
3:59 am 03:59 Clear 40 4.4 19 -7.2 43 43 NNW 16 26 30.39 1029 10 16 0.00 0.00
4:59 am 04:59 Clear 40 4.4 19 -7.2 43 43 NNW 17 28 30.40 1030 10 16 0.00 0.00
5:59 am 05:59 Clear 39 3.9 20 -6.7 46 46 NNW 16 26 30.42 1030 10 16 0.00 0.00
6:59 am 06:59 Mostly Sunny 38 3.3 20 -6.7 48 48 NNW 15 24 30.44 1031 10 16 0.00 0.00
7:59 am 07:59 Mostly Sunny 40 4.4 21 -6.1 47 47 NNW 14 22 30.46 1032 10 16 0.00 0.00
8:59 am 08:59 Mostly Sunny 43 6.1 21 -6.1 42 42 NNW 15 24 30.48 1032 10 16 0.00 0.00
9:59 am 09:59 Sunny 45 7.2 19 -7.2 35 35 NNW 12 19 30.48 1032 10 16 0.00 0.00
10:59 am 10:59 Sunny 45 7.2 14 -10 29 29 NW 8 13 30.48 1032 10 16 0.00 0.00
11:59 am 11:59 Mostly Sunny 47 8.3 15 -9.4 28 28 VRB 6 9 30.47 1032 10 16 0.00 0.00
12:59 pm 12:59 Partly Cloudy 48 8.9 19 -7.2 32 32 W 13 20 30.45 1031 10 16 0.00 0.00
1:59 pm 13:59 Mostly Sunny 49 9.4 17 -8.3 28 28 W 13 20 30.42 1030 10 16 0.00 0.00
2:59 pm 14:59 Mostly Sunny 52 11.1 17 -8.3 25 25 WNW 9 15 30.39 1029 10 16 0.00 0.00
3:59 pm 15:59 Mostly Sunny 53 11.7 18 -7.8 25 25 VRB 7 11 30.36 1028 10 16 0.00 0.00
4:59 pm 16:59 Partly Cloudy 54 12.2 16 -8.9 22 22 VRB 6 9 30.34 1028 10 16 0.00 0.00
5:59 pm 17:59 Partly Cloudy 54 12.2 17 -8.3 23 23 VRB 6 9 30.34 1027 10 16 0.00 0.00
6:59 pm 18:59 Partly Cloudy 53 11.7 18 -7.8 25 25 W 8 13 30.33 1027 10 16 0.00 0.00
7:59 pm 19:59 Mostly Clear 44 6.7 26 -3.3 49 49 S 5 7 30.33 1027 10 16 0.00 0.00
8:59 pm 20:59 Clear 43 6.1 29 -1.7 58 58 S 3 6 30.34 1027 10 16 0.00 0.00
9:59 pm 21:59 Clear 44 6.7 28 -2.2 53 53 S 6 9 30.34 1027 10 16 0.00 0.00
10:59 pm 22:59 Clear 43 6.1 30 -1.1 60 60 S 7 11 30.33 1027 10 16 0.00 0.00
11:59 pm 23:59 Clear 43 6.1 30 -1.1 60 60 S 7 11 30.32 1027 10 16 0.00 0.00

Powered by AerisWeather